Time,TemperatureF,DewpointF,PressureIn,WindDirection,WindDirectionDegrees,WindSpeedMPH,WindSpeedGustMPH,Humidity,HourlyPrecipIn,Conditions,Clouds,dailyrainin,SoftwareType,DateUTC
2013-06-06 00:00:00,55.0,53.0,30.18,North,-999,-999.0,-999.0,91,-99.99,,,-99.99,,2013-06-05 23:00:00,
2013-06-06 00:41:00,55.0,53.0,30.18,North,-999,-999.0,-999.0,91,-99.99,,,-99.99,,2013-06-05 23:41:00,
2013-06-06 00:52:00,55.0,53.0,30.18,North,-999,-999.0,-999.0,91,-99.99,,,-99.99,,2013-06-05 23:52:00,
2013-06-06 01:00:00,54.0,52.0,30.18,North,-999,-999.0,-999.0,91,-99.99,,,-99.99,,2013-06-06 00:00:00,
2013-06-06 01:42:00,54.0,52.0,30.18,North,-999,-999.0,-999.0,91,-99.99,,,-99.99,,2013-06-06 00:42:00,
2013-06-06 01:51:00,54.0,52.0,30.18,North,-999,-999.0,-999.0,91,-99.99,,,-99.99,,2013-06-06 00:51:00,
2013-06-06 02:00:00,53.0,52.0,30.18,North,-999,-999.0,-999.0,95,-99.99,,,-99.99,,2013-06-06 01:00:00,
2013-06-06 02:41:00,53.0,52.0,30.18,North,-999,-999.0,-999.0,95,-99.99,,,-99.99,,2013-06-06 01:41:00,
2013-06-06 02:52:00,53.0,52.0,30.18,North,-999,-999.0,-999.0,95,-99.99,,,-99.99,,2013-06-06 01:52:00,
2013-06-06 04:00:00,53.0,52.0,30.16,North,-999,-999.0,-999.0,98,-99.99,,,-99.99,,2013-06-06 03:00:00,
2013-06-06 04:42:00,53.0,52.0,30.16,North,-999,-999.0,-999.0,98,-99.99,,,-99.99,,2013-06-06 03:42:00,
2013-06-06 04:52:00,53.0,52.0,30.16,North,-999,-999.0,-999.0,98,-99.99,,,-99.99,,2013-06-06 03:52:00,
2013-06-06 05:00:00,53.0,52.0,30.15,North,-999,-999.0,-999.0,96,-99.99,,,-99.99,,2013-06-06 04:00:00,
2013-06-06 05:42:00,53.0,52.0,30.15,North,-999,-999.0,-999.0,96,-99.99,,,-99.99,,2013-06-06 04:42:00,
2013-06-06 05:52:00,53.0,52.0,30.15,North,-999,-999.0,-999.0,96,-99.99,,,-99.99,,2013-06-06 04:52:00,
2013-06-06 06:00:00,53.0,50.0,30.17,North,-999,-999.0,-999.0,90,-99.99,,,-99.99,,2013-06-06 05:00:00,
2013-06-06 06:41:00,53.0,50.0,30.17,North,-999,-999.0,-999.0,90,-99.99,,,-99.99,,2013-06-06 05:41:00,
2013-06-06 06:51:00,53.0,50.0,30.17,North,-999,-999.0,-999.0,90,-99.99,,,-99.99,,2013-06-06 05:51:00,
2013-06-06 07:00:00,54.0,50.0,30.17,North,-999,-999.0,-999.0,85,-99.99,,,-99.99,,2013-06-06 06:00:00,
2013-06-06 07:41:00,54.0,50.0,30.17,North,-999,-999.0,-999.0,85,-99.99,,,-99.99,,2013-06-06 06:41:00,
2013-06-06 07:52:00,54.0,50.0,30.17,North,-999,-999.0,-999.0,85,-99.99,,,-99.99,,2013-06-06 06:52:00,
2013-06-06 08:00:00,55.0,49.0,30.19,North,-999,-999.0,-999.0,80,-99.99,,,-99.99,,2013-06-06 07:00:00,
2013-06-06 08:42:00,55.0,49.0,30.19,North,-999,-999.0,-999.0,80,-99.99,,,-99.99,,2013-06-06 07:42:00,
2013-06-06 08:52:00,55.0,49.0,30.19,North,-999,-999.0,-999.0,80,-99.99,,,-99.99,,2013-06-06 07:52:00,
2013-06-06 10:00:00,56.0,51.0,30.20,North,-999,-999.0,-999.0,84,-99.99,,,-99.99,,2013-06-06 09:00:00,
2013-06-06 10:42:00,56.0,51.0,30.20,North,-999,-999.0,-999.0,84,-99.99,,,-99.99,,2013-06-06 09:42:00,
2013-06-06 10:53:00,56.0,51.0,30.20,North,-999,-999.0,-999.0,84,-99.99,,,-99.99,,2013-06-06 09:53:00,
2013-06-06 11:00:00,57.0,51.0,30.20,North,-999,-999.0,-999.0,78,-99.99,,,-99.99,,2013-06-06 10:00:00,
2013-06-06 11:41:00,57.0,51.0,30.20,North,-999,-999.0,-999.0,78,-99.99,,,-99.99,,2013-06-06 10:41:00,
2013-06-06 11:52:00,57.0,51.0,30.20,North,-999,-999.0,-999.0,78,-99.99,,,-99.99,,2013-06-06 10:52:00,
2013-06-06 12:00:00,54.0,51.0,30.22,North,-999,-999.0,-999.0,89,-99.99,,,-99.99,,2013-06-06 11:00:00,
2013-06-06 12:42:00,54.0,51.0,30.22,North,-999,-999.0,-999.0,89,-99.99,,,-99.99,,2013-06-06 11:42:00,
2013-06-06 12:51:00,54.0,51.0,30.22,North,-999,-999.0,-999.0,89,-99.99,,,-99.99,,2013-06-06 11:51:00,
2013-06-06 13:00:00,58.0,52.0,30.22,North,-999,-999.0,-999.0,79,-99.99,,,-99.99,,2013-06-06 12:00:00,
2013-06-06 13:42:00,58.0,52.0,30.22,North,-999,-999.0,-999.0,79,-99.99,,,-99.99,,2013-06-06 12:42:00,
2013-06-06 13:52:00,58.0,52.0,30.22,North,-999,-999.0,-999.0,79,-99.99,,,-99.99,,2013-06-06 12:52:00,
2013-06-06 14:00:00,55.0,52.0,30.22,North,-999,-999.0,-999.0,89,-99.99,,,-99.99,,2013-06-06 13:00:00,
2013-06-06 14:42:00,55.0,52.0,30.22,North,-999,-999.0,-999.0,89,-99.99,,,-99.99,,2013-06-06 13:42:00,
2013-06-06 14:52:00,55.0,52.0,30.22,North,-999,-999.0,-999.0,89,-99.99,,,-99.99,,2013-06-06 13:52:00,
2013-06-06 15:00:00,57.0,53.0,30.24,North,-999,-999.0,-999.0,86,-99.99,,,-99.99,,2013-06-06 14:00:00,
2013-06-06 15:42:00,57.0,53.0,30.24,North,-999,-999.0,-999.0,86,-99.99,,,-99.99,,2013-06-06 14:42:00,
2013-06-06 15:52:00,57.0,53.0,30.24,North,-999,-999.0,-999.0,86,-99.99,,,-99.99,,2013-06-06 14:52:00,
2013-06-06 16:00:00,55.0,51.0,30.22,North,-999,-999.0,-999.0,85,-99.99,,,-99.99,,2013-06-06 15:00:00,
2013-06-06 16:42:00,55.0,51.0,30.22,North,-999,-999.0,-999.0,85,-99.99,,,-99.99,,2013-06-06 15:42:00,
2013-06-06 16:52:00,55.0,51.0,30.22,North,-999,-999.0,-999.0,85,-99.99,,,-99.99,,2013-06-06 15:52:00,
2013-06-06 17:42:00,54.0,50.0,30.19,North,-999,-999.0,-999.0,86,-99.99,,,-99.99,,2013-06-06 16:42:00,
2013-06-06 18:00:00,54.0,51.0,30.18,North,-999,-999.0,-999.0,89,-99.99,,,-99.99,,2013-06-06 17:00:00,
2013-06-06 18:42:00,54.0,51.0,30.18,North,-999,-999.0,-999.0,89,-99.99,,,-99.99,,2013-06-06 17:42:00,
2013-06-06 18:52:00,54.0,51.0,30.18,North,-999,-999.0,-999.0,89,-99.99,,,-99.99,,2013-06-06 17:52:00,
2013-06-06 19:00:00,61.0,53.0,30.21,North,-999,-999.0,-999.0,76,-99.99,,,-99.99,,2013-06-06 18:00:00,
2013-06-06 19:42:00,61.0,53.0,30.21,North,-999,-999.0,-999.0,76,-99.99,,,-99.99,,2013-06-06 18:42:00,
2013-06-06 19:52:00,61.0,53.0,30.21,North,-999,-999.0,-999.0,76,-99.99,,,-99.99,,2013-06-06 18:52:00,
2013-06-06 20:00:00,59.0,52.0,30.19,North,-999,-999.0,-999.0,78,-99.99,,,-99.99,,2013-06-06 19:00:00,
2013-06-06 20:42:00,59.0,52.0,30.19,North,-999,-999.0,-999.0,78,-99.99,,,-99.99,,2013-06-06 19:42:00,
2013-06-06 20:52:00,59.0,52.0,30.19,North,-999,-999.0,-999.0,78,-99.99,,,-99.99,,2013-06-06 19:52:00,
2013-06-06 21:00:00,54.0,51.0,30.21,North,-999,-999.0,-999.0,89,-99.99,,,-99.99,,2013-06-06 20:00:00,
2013-06-06 21:42:00,54.0,51.0,30.21,North,-999,-999.0,-999.0,89,-99.99,,,-99.99,,2013-06-06 20:42:00,
2013-06-06 21:52:00,54.0,51.0,30.21,North,-999,-999.0,-999.0,89,-99.99,,,-99.99,,2013-06-06 20:52:00,
2013-06-06 22:00:00,52.0,51.0,30.21,North,-999,-999.0,-999.0,97,-99.99,,,-99.99,,2013-06-06 21:00:00,
2013-06-06 22:43:00,52.0,51.0,30.21,North,-999,-999.0,-999.0,97,-99.99,,,-99.99,,2013-06-06 21:43:00,
2013-06-06 22:53:00,52.0,51.0,30.21,North,-999,-999.0,-999.0,97,-99.99,,,-99.99,,2013-06-06 21:53:00,
2013-06-06 23:00:00,54.0,54.0,30.25,North,-999,-999.0,-999.0,99,-99.99,,,-99.99,,2013-06-06 22:00:00,
2013-06-06 23:43:00,54.0,54.0,30.25,North,-999,-999.0,-999.0,99,-99.99,,,-99.99,,2013-06-06 22:43:00,
2013-06-06 23:52:00,54.0,54.0,30.25,North,-999,-999.0,-999.0,99,-99.99,,,-99.99,,2013-06-06 22:52:00,